FW7504 Weather Reports


Display with metric or nautical units.
time (UTC)temp
F
wind
direction
speed
MPH
gust
MPH
rain 1hr
in
rain 24hr
in
rain mn
in
humidity
%
barometer
mb
20260505203556 76 360 3.0 5.0 0.00 0.00 0.00 43 1013.2
20260505203056 76 360 2.0 5.0 0.00 0.00 0.00 44 1013.3
20260505202553 76 360 2.0 8.0 0.00 0.00 0.00 45 1013.2
20260505202053 77 360 3.0 8.0 0.00 0.00 0.00 47 1013.4
20260505201555 77 360 3.0 8.0 0.00 0.00 0.00 47 1013.5
20260505201053 78 360 3.0 8.0 0.00 0.00 0.00 47 1013.6
20260505200554 78 360 4.0 8.0 0.00 0.00 0.00 46 1013.7
20260505200055 79 360 4.0 8.0 0.00 0.00 0.00 48 1013.7
20260505195552 78 360 1.0 8.0 0.00 0.00 0.00 49 1013.6
20260505195052 78 360 2.0 9.0 0.00 0.00 0.00 48 1013.6
20260505194558 78 360 4.0 10.0 0.00 0.00 0.00 45 1013.6
20260505194054 78 360 5.0 10.0 0.00 0.00 0.00 46 1013.7
20260505193553 78 360 4.0 9.0 0.00 0.00 0.00 45 1013.8
20260505193110 78 360 1.0 8.0 0.00 0.00 0.00 46 1013.9
20260505192555 78 360 2.0 8.0 0.00 0.00 0.00 47 1013.9
20260505192053 78 360 4.0 8.0 0.00 0.00 0.00 45 1014.0
20260505191559 78 360 2.0 6.0 0.00 0.00 0.00 45 1014.2
20260505191053 78 0 1.0 5.0 0.00 0.00 0.00 46 1014.1
20260505190553 77 360 1.0 5.0 0.00 0.00 0.00 47 1013.9
20260505190056 77 360 2.0 9.0 0.00 0.00 0.00 45 1013.9
20260505185553 77 360 2.0 9.0 0.00 0.00 0.00 46 1014.2
20260505185053 77 360 4.0 9.0 0.00 0.00 0.00 45 1014.3
20260505184556 77 360 4.0 9.0 0.00 0.00 0.00 43 1014.2
20260505184053 76 360 3.0 11.0 0.00 0.00 0.00 43 1014.5
20260505183552 76 360 4.0 11.0 0.00 0.00 0.00 45 1014.5
20260505183057 76 360 4.0 10.0 0.00 0.00 0.00 46 1014.6
20260505182552 77 360 3.0 11.0 0.00 0.00 0.00 45 1014.8
20260505182052 76 360 4.0 11.0 0.00 0.00 0.00 44 1014.9
20260505181552 76 360 5.0 11.0 0.00 0.00 0.00 44 1015.1
20260505181054 76 360 3.0 8.0 0.00 0.00 0.00 43 1015.1
20260505180553 76 360 3.0 13.0 0.00 0.00 0.00 45 1015.2
20260505180056 76 360 2.0 13.0 0.00 0.00 0.00 44 1014.9
20260505175553 77 360 3.0 13.0 0.00 0.00 0.00 43 1014.8
20260505175053 76 360 3.0 10.0 0.00 0.00 0.00 46 1015.0
20260505174557 76 360 4.0 9.0 0.00 0.00 0.00 45 1015.0
20260505174056 76 360 2.0 9.0 0.00 0.00 0.00 46 1015.2
20260505173553 76 360 3.0 10.0 0.00 0.00 0.00 45 1015.2
20260505173051 76 360 4.0 10.0 0.00 0.00 0.00 45 1015.2
20260505172552 76 360 1.0 5.0 0.00 0.00 0.00 49 1015.2
20260505172052 76 360 2.0 8.0 0.00 0.00 0.00 49 1015.3
20260505171552 75 360 2.0 8.0 0.00 0.00 0.00 47 1015.5
20260505171053 75 360 3.0 8.0 0.00 0.00 0.00 47 1015.6
20260505170552 75 360 2.0 8.0 0.00 0.00 0.00 47 1015.9
20260505170054 75 360 2.0 8.0 0.00 0.00 0.00 46 1016.0
20260505165552 75 360 3.0 10.0 0.00 0.00 0.00 47 1016.1
20260505165053 74 360 2.0 10.0 0.00 0.00 0.00 47 1016.0
20260505164552 74 360 3.0 6.0 0.00 0.00 0.00 51 1015.8
20260505164053 74 360 2.0 5.0 0.00 0.00 0.00 51 1016.1
20260505163553 73 360 2.0 8.0 0.00 0.00 0.00 54 1016.1
20260505163054 73 360 3.0 8.0 0.00 0.00 0.00 53 1016.2
20260505162555 73 360 3.0 8.0 0.00 0.00 0.00 54 1016.2
20260505162054 73 360 3.0 6.0 0.00 0.00 0.00 55 1016.0
20260505161554 73 360 2.0 5.0 0.00 0.00 0.00 54 1015.9
20260505161053 72 360 1.0 5.0 0.00 0.00 0.00 59 1016.0
20260505160553 72 0 1.0 4.0 0.00 0.00 0.00 58 1015.9
20260505153107 71 360 0.0 4.0 0.00 0.00 0.00 62 1016.4
20260505152554 70 360 2.0 5.0 0.00 0.00 0.00 60 1016.4
20260505152053 70 360 1.0 5.0 0.00 0.00 0.00 60 1016.3
20260505151554 70 360 2.0 6.0 0.00 0.00 0.00 61 1016.4
20260505151057 70 360 2.0 6.0 0.00 0.00 0.00 61 1016.6
20260505150553 70 0 1.0 4.0 0.00 0.00 0.00 64 1016.4
20260505140553 65 0 0.0 1.0 0.00 0.00 0.00 70 1016.5
20260505124603 57 0 0.0 0.0 0.00 0.00 0.00 79 1016.3
20260505124052 57 0 0.0 0.0 0.00 0.00 0.00 79 1016.3
20260505123557 57 0 0.0 0.0 0.00 0.00 0.00 78 1016.1
20260505123114 56 0 0.0 0.0 0.00 0.00 0.00 78 1016.1
20260505122553 56 0 0.0 0.0 0.00 0.00 0.00 78 1016.0
20260505122053 56 0 0.0 2.0 0.00 0.00 0.00 81 1015.8
20260505121557 55 0 0.0 2.0 0.00 0.00 0.00 80 1015.8
20260505121057 55 360 0.0 2.0 0.00 0.00 0.00 80 1015.8
20260505120554 54 0 0.0 0.0 0.00 0.00 0.00 82 1015.8
20260505120108 54 0 0.0 0.0 0.00 0.00 0.00 82 1015.6
20260505115552 54 0 0.0 0.0 0.00 0.00 0.00 82 1015.5
20260505115052 53 0 0.0 0.0 0.00 0.00 0.00 82 1015.6
20260505114600 53 0 0.0 0.0 0.00 0.00 0.00 82 1015.5
20260505114052 53 0 0.0 0.0 0.00 0.00 0.00 82 1015.4
20260505113557 53 0 0.0 0.0 0.00 0.00 0.00 82 1015.3
20260505113102 53 0 0.0 0.0 0.00 0.00 0.00 82 1015.3
20260505112553 53 0 0.0 0.0 0.00 0.00 0.00 82 1015.2
20260505112053 53 0 0.0 0.0 0.00 0.00 0.00 81 1015.1
20260505111606 53 0 0.0 0.0 0.00 0.00 0.00 81 1015.0
20260505111053 53 0 0.0 0.0 0.00 0.00 0.00 81 1015.0
20260505110553 53 0 0.0 0.0 0.00 0.00 0.00 81 1014.9
20260505110119 53 0 0.0 0.0 0.00 0.00 0.00 80 1014.9
20260505102052 54 0 0.0 0.0 0.00 0.00 0.00 77 1014.4
20260505101601 55 0 0.0 0.0 0.00 0.00 0.00 76 1014.4
20260505101052 55 0 0.0 0.0 0.00 0.00 0.00 76 1014.2
20260505100553 55 0 0.0 0.0 0.00 0.00 0.00 76 1014.2
20260505100104 56 0 0.0 0.0 0.00 0.00 0.00 75 1014.2
20260505095554 56 0 0.0 0.0 0.00 0.00 0.00 74 1014.1
20260505095053 56 0 0.0 0.0 0.00 0.00 0.00 74 1014.1
20260505094555 56 0 0.0 0.0 0.00 0.00 0.00 74 1014.1
20260505094052 57 0 0.0 0.0 0.00 0.00 0.00 73 1014.2
20260505093552 57 0 0.0 0.0 0.00 0.00 0.00 72 1014.3
20260505093052 57 0 0.0 0.0 0.00 0.00 0.00 71 1014.4
20260505092553 58 0 0.0 1.0 0.00 0.00 0.00 70 1014.4
20260505092053 58 0 0.0 1.0 0.00 0.00 0.00 70 1014.2
20260505091617 57 0 0.0 0.0 0.00 0.00 0.00 70 1014.3
20260505091052 57 0 0.0 0.0 0.00 0.00 0.00 69 1014.3
20260505090553 57 0 0.0 0.0 0.00 0.00 0.00 70 1014.1
20260505090119 57 0 0.0 0.0 0.00 0.00 0.00 70 1014.2
20260505085552 57 0 0.0 0.0 0.00 0.00 0.00 71 1014.2
20260505085052 57 0 0.0 0.0 0.00 0.00 0.00 71 1014.1
20260505084611 57 0 0.0 0.0 0.00 0.00 0.00 72 1014.1
20260505084051 57 0 0.0 0.0 0.00 0.00 0.00 71 1014.2
20260505083555 57 0 0.0 0.0 0.00 0.00 0.00 72 1014.4
20260505083111 57 0 0.0 0.0 0.00 0.00 0.00 72 1014.4
20260505082552 57 0 0.0 0.0 0.00 0.00 0.00 72 1014.5
20260505082053 56 0 0.0 0.0 0.00 0.00 0.00 73 1014.6
20260505081603 56 0 0.0 0.0 0.00 0.00 0.00 73 1014.5
20260505081053 56 0 0.0 0.0 0.00 0.00 0.00 74 1014.5
20260505080552 56 0 0.0 0.0 0.00 0.00 0.00 74 1014.5
20260505075552 57 0 0.0 0.0 0.00 0.00 0.00 73 1014.6
20260505075053 57 0 0.0 0.0 0.00 0.00 0.00 74 1014.5
20260505074556 57 0 0.0 0.0 0.00 0.00 0.00 73 1014.5
20260505074053 57 0 0.0 0.0 0.00 0.00 0.00 72 1014.5
20260505073553 57 0 0.0 0.0 0.00 0.00 0.00 72 1014.4
20260505073056 57 0 0.0 0.0 0.00 0.00 0.00 72 1014.5
20260505072556 57 0 0.0 0.0 0.00 0.00 0.00 72 1014.6
20260505072053 57 0 0.0 0.0 0.00 0.00 0.00 72 1014.6
20260505071613 57 0 0.0 0.0 0.00 0.00 0.00 72 1014.6
20260505071056 57 0 0.0 0.0 0.00 0.00 0.00 72 1014.5
20260505070553 57 0 0.0 0.0 0.00 0.00 0.00 72 1014.5
20260505070054 57 0 0.0 0.0 0.00 0.00 0.00 72 1014.5
20260505065553 58 0 0.0 0.0 0.00 0.00 0.00 72 1014.5
20260505065052 58 0 0.0 0.0 0.00 0.00 0.00 72 1014.6
20260505064555 58 0 0.0 0.0 0.00 0.00 0.00 72 1014.7
20260505064055 58 0 0.0 0.0 0.00 0.00 0.00 72 1014.8
20260505063555 58 0 0.0 0.0 0.00 0.00 0.00 72 1014.7
20260505063054 58 0 0.0 0.0 0.00 0.00 0.00 72 1014.7
20260505062552 58 0 0.0 0.0 0.00 0.00 0.00 72 1014.8
20260505062051 59 0 0.0 0.0 0.00 0.00 0.00 72 1014.9
20260505061556 59 0 0.0 0.0 0.00 0.00 0.00 72 1014.8
20260505061052 59 0 0.0 0.0 0.00 0.00 0.00 72 1014.8
20260505060552 59 0 0.0 0.0 0.00 0.00 0.00 72 1014.8
20260505055552 59 0 0.0 0.0 0.00 0.00 0.00 72 1014.7
20260505055059 59 0 0.0 0.0 0.00 0.00 0.00 72 1014.8
20260505054554 59 0 0.0 0.0 0.00 0.00 0.00 72 1014.9
20260505054052 59 0 0.0 0.0 0.00 0.00 0.00 72 1014.8
20260505053552 59 0 0.0 0.0 0.00 0.00 0.00 72 1015.0
20260505053100 59 0 0.0 0.0 0.00 0.00 0.00 71 1015.0
20260505052553 59 0 0.0 0.0 0.00 0.00 0.00 71 1014.9
20260505052052 59 0 0.0 0.0 0.00 0.00 0.00 71 1014.9
20260505051552 59 0 0.0 0.0 0.00 0.00 0.00 71 1014.9
20260505051053 60 0 0.0 0.0 0.00 0.00 0.00 71 1014.8
20260505050553 60 0 0.0 0.0 0.00 0.00 0.00 70 1014.8
20260505041605 61 0 0.0 0.0 0.00 0.00 0.00 69 1014.8
20260505041052 61 0 0.0 0.0 0.00 0.00 0.00 70 1014.7
20260505040553 62 0 0.0 0.0 0.00 0.00 0.00 68 1014.8
20260505040057 62 0 0.0 0.0 0.00 0.00 0.00 66 1014.8
20260505035552 62 0 0.0 0.0 0.00 0.00 0.00 66 1014.8
20260505035052 62 0 0.0 0.0 0.00 0.00 0.00 66 1014.8
20260505034550 62 0 0.0 0.0 0.00 0.00 0.00 66 1014.7
20260505034052 62 0 0.0 0.0 0.00 0.00 0.00 66 1014.7
20260505033552 62 0 0.0 0.0 0.00 0.00 0.00 66 1014.8
20260505033051 62 0 0.0 0.0 0.00 0.00 0.00 66 1014.9
20260505032551 62 0 0.0 0.0 0.00 0.00 0.00 65 1014.9
20260505032052 62 0 0.0 0.0 0.00 0.00 0.00 65 1014.8
20260505031557 62 0 0.0 0.0 0.00 0.00 0.00 65 1014.8
20260505031052 62 0 0.0 0.0 0.00 0.00 0.00 65 1014.8
20260505030551 62 0 0.0 0.0 0.00 0.00 0.00 66 1014.8
20260505030110 62 0 0.0 0.0 0.00 0.00 0.00 66 1014.7
20260505025552 63 0 0.0 0.0 0.00 0.00 0.00 67 1014.9
20260505025049 63 0 0.0 0.0 0.00 0.00 0.00 65 1015.0
20260505024600 63 0 0.0 0.0 0.00 0.00 0.00 65 1014.8
20260505024051 64 0 0.0 0.0 0.00 0.00 0.00 65 1014.9
20260505023552 64 0 0.0 0.0 0.00 0.00 0.00 64 1014.9
20260505023058 64 0 0.0 0.0 0.00 0.00 0.00 62 1015.0
20260505022552 65 0 0.0 0.0 0.00 0.00 0.00 61 1014.9
20260505022055 65 0 0.0 0.0 0.00 0.00 0.00 63 1014.7
20260505021603 65 0 0.0 0.0 0.00 0.00 0.00 62 1014.8
20260505021051 65 0 0.0 0.0 0.00 0.00 0.00 60 1014.8
20260505020552 66 0 0.0 0.0 0.00 0.00 0.00 60 1014.7
20260505015552 66 0 0.0 0.0 0.00 0.00 0.00 60 1014.6
20260505015052 67 0 0.0 0.0 0.00 0.00 0.00 59 1014.5
20260505014611 67 0 0.0 0.0 0.00 0.00 0.00 58 1014.6
20260505014055 67 0 0.0 0.0 0.00 0.00 0.00 56 1014.6
20260505013552 67 0 0.0 0.0 0.00 0.00 0.00 56 1014.5
20260505013059 68 0 0.0 0.0 0.00 0.00 0.00 56 1014.5
20260505012552 68 0 0.0 0.0 0.00 0.00 0.00 55 1014.5
20260505012052 68 0 0.0 0.0 0.00 0.00 0.00 54 1014.4
20260505011558 68 0 0.0 0.0 0.00 0.00 0.00 53 1014.4
20260505011056 68 0 0.0 0.0 0.00 0.00 0.00 53 1014.4
20260505010552 69 0 0.0 0.0 0.00 0.00 0.00 53 1014.2
20260505010058 69 0 0.0 0.0 0.00 0.00 0.00 52 1014.2
20260505005556 69 0 0.0 0.0 0.00 0.00 0.00 53 1014.0
20260505005052 70 0 0.0 0.0 0.00 0.00 0.00 53 1014.0
20260505004554 70 0 0.0 0.0 0.00 0.00 0.00 51 1014.0
20260505004051 70 0 0.0 0.0 0.00 0.00 0.00 51 1013.9
20260505003552 71 0 0.0 0.0 0.00 0.00 0.00 49 1013.9
20260505003101 71 0 0.0 0.0 0.00 0.00 0.00 49 1013.9
20260505002552 71 0 0.0 0.0 0.00 0.00 0.00 48 1014.0
20260505002052 71 0 0.0 1.0 0.00 0.00 0.00 47 1014.0
20260505001559 72 0 0.0 1.0 0.00 0.00 0.00 46 1013.9
20260505001052 72 0 0.0 2.0 0.00 0.00 0.00 46 1013.9
20260505000552 72 0 0.0 2.0 0.00 0.00 0.00 45 1013.9
20260505000058 72 0 0.0 3.0 0.00 0.00 0.00 45 1013.9
20260504235552 73 360 0.0 3.0 0.00 0.00 0.00 45 1013.9
20260504235051 73 0 1.0 3.0 0.00 0.00 0.00 44 1014.0
20260504234558 73 0 0.0 5.0 0.00 0.00 0.00 43 1013.8
20260504234052 73 0 1.0 5.0 0.00 0.00 0.00 44 1013.9
20260504233551 74 360 1.0 8.0 0.00 0.00 0.00 44 1013.8
20260504233058 74 360 2.0 8.0 0.00 0.00 0.00 44 1013.9
20260504232552 74 360 2.0 8.0 0.00 0.00 0.00 44 1013.9
20260504232052 74 360 1.0 5.0 0.00 0.00 0.00 45 1013.9
20260504231555 74 360 2.0 5.0 0.00 0.00 0.00 45 1014.0
20260504231051 75 360 1.0 4.0 0.00 0.00 0.00 45 1014.1
20260504230555 75 360 1.0 4.0 0.00 0.00 0.00 44 1013.9
20260504230106 75 360 1.0 6.0 0.00 0.00 0.00 45 1014.0
20260504225553 75 360 1.0 6.0 0.00 0.00 0.00 45 1014.0
20260504225052 75 360 2.0 5.0 0.00 0.00 0.00 44 1014.1
20260504224600 75 0 2.0 5.0 0.00 0.00 0.00 45 1013.9
20260504224056 76 360 2.0 5.0 0.00 0.00 0.00 45 1014.0
20260504223554 76 360 1.0 4.0 0.00 0.00 0.00 47 1013.9
20260504223125 76 0 1.0 5.0 0.00 0.00 0.00 45 1014.0
20260504222552 76 360 1.0 6.0 0.00 0.00 0.00 47 1013.9
20260504222049 76 360 3.0 6.0 0.00 0.00 0.00 46 1014.0
20260504221555 77 360 3.0 6.0 0.00 0.00 0.00 45 1013.9
20260504221052 77 360 1.0 4.0 0.00 0.00 0.00 47 1013.9
20260504220552 77 360 2.0 4.0 0.00 0.00 0.00 48 1013.9
20260504215552 77 360 2.0 5.0 0.00 0.00 0.00 46 1013.8
20260504215051 77 360 2.0 5.0 0.00 0.00 0.00 48 1013.7
20260504214559 77 360 1.0 4.0 0.00 0.00 0.00 49 1013.8
20260504214052 77 360 1.0 4.0 0.00 0.00 0.00 48 1013.8
20260504213552 78 0 2.0 4.0 0.00 0.00 0.00 50 1013.7
20260504213105 77 360 0.0 3.0 0.00 0.00 0.00 51 1013.8
20260504212552 77 0 0.0 4.0 0.00 0.00 0.00 48 1013.9
20260504212052 77 360 1.0 4.0 0.00 0.00 0.00 49 1013.9
20260504211653 77 0 0.0 6.0 0.00 0.00 0.00 50 1013.9
20260504211052 77 360 1.0 6.0 0.00 0.00 0.00 50 1014.0
20260504210554 77 360 2.0 5.0 0.00 0.00 0.00 49 1014.1
20260504205554 77 0 1.0 4.0 0.00 0.00 0.00 49 1014.1
20260504205048 77 360 2.0 4.0 0.00 0.00 0.00 51 1014.1
20260504204601 77 360 1.0 4.0 0.00 0.00 0.00 49 1014.1
20260504204053 77 360 1.0 4.0 0.00 0.00 0.00 48 1014.1